PEGASUS DEB

Satellite information

Favourite Embed

Satellite Type and Status

DEBRISIN ORBIT

Key statistics

Satellite PEGASUS DEB at a glance.

Uptime

11311

Days in orbit

Revolutions

≈ 14.3

Per day

Orbit

LEO

Low Earth Orbit

Inclination

81.9

Latest

Satellite identification and parameters

Extended collection of information and parameters for PEGASUS DEB.

Object identification

Identified? True

Debris? True

Object name: PEGASUS DEB

International designator: 1994-029AGJ

Object number (NORAD): 40242

Object ID (CCSDS): 40242

Country: UNITED STATES OF AMERICA (US)

Current information (Y/N): Y

RCS size: SMALL

Orbital parameters

Period: 100.883 minutes

Inclination: 81.8811 deg

SMA: 7178.588 km

Apoapsis: 1045.497 km

Periapsis: 555.409 km

RAAN: 328.4376 deg

Eccentricy: 0.0341354

Argument of periapsis: 4.3654 deg

Mean anomaly: 356.037 deg

Mean motion: 14.27395255 rev/day

Mean motion (dot): 0.00008132 rev/day2

B* drag term: 0.0017714 1/REarth

Two-line elements (TLE)

Creation date: May 4, 2025, 10:36 p.m.

Reference frame: TEME

Reference center: EARTH

Epoch: May 4, 2025, 7:32 a.m. UTC

TLE line 0: 0 PEGASUS DEB

TLE line 1: 1 40242U 94029AGJ 25124.31402825 .00008132 00000-0 17714-2 0 9991

TLE line 2: 2 40242 81.8811 328.4376 0341354 4.3654 356.0370 14.27395255 94703

Live tracking on map

Real-time ground track for satellite PEGASUS DEB.

In-orbit conjunctions

A list of the most updated potential collisions computed for object PEGASUS DEB.

Target Orbit TCA Probability of collision Miss distance Type
RUBIN 4/SL-8 SSO 2025-03-15 19:35:14 0.0001927379 942.0 (m) PAYLOAD
FUSE 1 LEO 2025-02-02 20:48:40 0.0002514717 861.0 (m) PAYLOAD
CZ-6A DEB LEO 2024-11-09 13:31:36 0.0001360605 406.0 (m) DEBRIS
FENGYUN 1C DEB SSO 2024-09-03 01:58:04 0.0001147464 55.0 (m) DEBRIS

Associated space launch

PEGASUS DEB was lifted into orbit during the mission ‘Pegasus HAPS | Space Test Experiments Platform 2 (STEP-2)’, on board a Pegasus HAPS space rocket.

The launch took place on May 19, 1994, 5:03 p.m. from Edwards Air Force Base.

For more information about the launch, click the button.

Launch to space Pegasus HAPS | Space Test Experiments Platform 2 (STEP-2)
Pegasus HAPS | Space Test Experiments Platform 2 (STEP-2)

Agency: N/A

Status: Launch Successful

Launch date: May 19, 1994, 5:03 p.m. UTC

Rocket: Pegasus HAPS

Launch pad: Edwards Air Force Base

Location: Air launch to orbit

...

Latest news about this satellite

There are no fresh news available about this satellite. Check back as we update our databases every day.


Newsletter sign-up

Weekly statistics, charts and insights to help you stay on top of the space industry.